START_TIME,STEP,MOV.,M6,t_acc.,M7,t_acc.,M19,t_acc.,H36,t_acc.
1979-07-31 15:00:26.060 ,0,0,0.,12.0,0.,12.0,0.,12.0,0.,12.0
1979-07-31 15:00:38.060 ,0,0,0.,12.0,0.,12.0,0.,12.0,0.,12.0
1979-07-31 15:00:50.050 ,2,1,0.,12.0,0.,12.0,0.,12.0,0.,12.0
1979-07-31 15:01:02.050 ,2,1,0.,12.0,0.,12.0,0.,12.0,0.,12.0
1979-07-31 15:01:14.050 ,2,0,0.,12.0,0.,12.0,0.,12.0,0.,12.0
1979-07-31 15:01:26.050 ,2,0,0.,12.0,0.,12.0,0.,12.0,0.,12.0
1979-07-31 15:02:26.050 ,0,0,0.,12.0,0.,12.0,0.,12.0,0.,12.0
1979-07-31 15:02:38.050 ,0,0,0.,12.0,0.,12.0,0.,12.0,0.,12.0
1979-07-31 15:02:50.050 ,0,0,0.,12.0,0.,12.0,0.,12.0,0.,12.0
1979-07-31 15:03:02.050 ,0,0,0.,12.0,0.,12.0,0.,12.0,0.,12.0
1979-07-31 15:03:14.050 ,5,1,0.,12.0,0.,12.0,0.,12.0,0.,12.0
1979-07-31 15:03:26.050 ,5,1,0.,12.0,0.,12.0,0.,12.0,0.,12.0
1979-07-31 15:03:38.050 ,5,0,0.,12.0,0.,12.0,0.,12.0,0.,12.0
1979-07-31 15:03:50.050 ,5,0,0.,12.0,0.,12.0,0.,12.0,0.,12.0
1979-07-31 15:04:02.050 ,6,1,0.,12.0,0.,12.0,0.,12.0,0.,12.0
1979-07-31 15:04:14.050 ,6,1,0.,12.0,0.,12.0,0.,12.0,0.,12.0
1979-07-31 15:04:26.050 ,6,0,0.,12.0,0.,12.0,0.,12.0,0.,12.0
1979-07-31 15:04:38.050 ,6,0,0.,12.0,0.,12.0,0.,12.0,0.,12.0
1979-07-31 15:04:50.050 ,7,1,0.,12.0,0.,12.0,0.,12.0,0.,12.0
1979-07-31 15:05:02.050 ,7,1,0.,12.0,0.,12.0,0.,12.0,0.,12.0
1979-07-31 15:05:14.050 ,7,0,0.,12.0,0.,12.0,0.,12.0,0.,12.0
1979-07-31 15:05:26.050 ,7,0,0.,12.0,0.,12.0,0.,12.0,0.,12.0
1979-07-31 15:05:38.050 ,7,1,0.,12.0,0.,12.0,0.,12.0,0.,12.0
1979-07-31 15:05:50.050 ,7,1,0.,12.0,0.,12.0,0.,12.0,0.,12.0
1979-07-31 15:06:02.050 ,7,0,0.,12.0,0.,12.0,0.,12.0,0.,12.0
1979-07-31 15:06:14.050 ,7,0,0.,12.0,0.,12.0,0.,12.0,0.,12.0
1979-07-31 15:06:26.050 ,6,1,0.,12.0,0.,12.0,0.,12.0,0.,12.0
1979-07-31 15:06:38.050 ,6,1,0.,12.0,0.,12.0,0.,12.0,0.,12.0
1979-07-31 15:06:50.050 ,6,0,0.,12.0,0.,12.0,0.,12.0,0.,12.0
1979-07-31 15:07:02.050 ,6,0,0.,12.0,0.,12.0,0.,12.0,0.,12.0
1979-07-31 15:07:14.050 ,5,1,0.,12.0,0.,12.0,0.,12.0,0.,12.0
1979-07-31 15:07:26.050 ,5,1,0.,12.0,0.,12.0,0.,12.0,0.,12.0
1979-07-31 15:07:38.050 ,5,0,0.,12.0,0.,12.0,0.,12.0,0.,12.0
1979-07-31 15:07:50.050 ,5,0,0.,12.0,0.,12.0,0.,12.0,0.,12.0
1979-07-31 15:08:02.050 ,4,1,0.,12.0,0.,12.0,0.,12.0,0.,12.0
1979-07-31 15:08:14.050 ,4,1,1.,12.0,0.,12.0,0.,12.0,0.,12.0
1979-07-31 15:08:26.050 ,4,0,0.,12.0,0.,12.0,0.,12.0,0.,12.0
1979-07-31 15:08:38.050 ,4,0,0.,12.0,0.,12.0,0.,12.0,0.,12.0
1979-07-31 15:08:50.050 ,3,1,0.,12.0,0.,12.0,0.,12.0,0.,12.0
1979-07-31 15:09:02.050 ,3,1,0.,12.0,0.,12.0,0.,12.0,0.,12.0
1979-07-31 15:09:14.050 ,3,0,0.,12.0,0.,12.0,0.,12.0,0.,12.0
1979-07-31 15:09:26.050 ,3,0,0.,12.0,0.,12.0,0.,12.0,0.,12.0
1979-07-31 15:09:38.050 ,2,1,0.,12.0,0.,12.0,0.,12.0,0.,12.0
1979-07-31 15:09:50.050 ,2,1,0.,12.0,0.,12.0,0.,12.0,0.,12.0
1979-07-31 15:10:02.050 ,2,0,0.,12.0,0.,12.0,0.,12.0,0.,12.0
1979-07-31 15:10:14.050 ,2,0,0.,12.0,0.,12.0,0.,12.0,0.,12.0
1979-07-31 15:10:26.050 ,1,1,0.,12.0,0.,12.0,0.,12.0,0.,12.0
1979-07-31 15:10:38.050 ,1,1,0.,12.0,0.,12.0,0.,12.0,0.,12.0
1979-07-31 15:10:50.050 ,1,0,0.,12.0,0.,12.0,0.,12.0,0.,12.0
1979-07-31 15:11:02.050 ,1,0,0.,12.0,0.,12.0,0.,12.0,0.,12.0
1979-07-31 15:11:14.050 ,0,1,0.,12.0,0.,12.0,0.,12.0,0.,12.0
1979-07-31 15:11:26.050 ,0,1,0.,12.0,0.,12.0,0.,12.0,0.,12.0
1979-07-31 15:11:38.050 ,0,0,0.,12.0,0.,12.0,0.,12.0,0.,12.0
1979-07-31 15:11:50.050 ,0,0,0.,12.0,0.,12.0,0.,12.0,0.,12.0
1979-07-31 15:12:02.050 ,0,1,0.,12.0,0.,12.0,0.,12.0,0.,12.0
1979-07-31 15:12:14.050 ,0,1,0.,12.0,0.,12.0,0.,12.0,0.,12.0
1979-07-31 15:12:26.050 ,0,0,0.,12.0,0.,12.0,0.,12.0,0.,12.0
1979-07-31 15:12:38.050 ,0,0,0.,12.0,0.,12.0,0.,12.0,0.,12.0
1979-07-31 15:12:50.050 ,1,1,0.,12.0,0.,12.0,0.,12.0,0.,12.0
1979-07-31 15:13:02.050 ,1,1,0.,12.0,0.,12.0,0.,12.0,0.,12.0
1979-07-31 15:13:14.050 ,1,0,0.,12.0,0.,12.0,0.,12.0,0.,12.0
1979-07-31 15:13:26.050 ,1,0,0.,12.0,0.,12.0,0.,12.0,0.,12.0
1979-07-31 15:13:38.050 ,2,1,0.,12.0,0.,12.0,0.,12.0,0.,12.0
1979-07-31 15:13:50.050 ,2,1,0.,12.0,0.,12.0,0.,12.0,0.,12.0
1979-07-31 15:14:02.050 ,2,0,0.,12.0,0.,12.0,0.,12.0,0.,12.0
1979-07-31 15:14:14.050 ,2,0,0.,12.0,0.,12.0,0.,12.0,0.,12.0
1979-07-31 15:14:26.050 ,3,1,0.,12.0,0.,12.0,0.,12.0,0.,12.0
1979-07-31 15:14:38.050 ,3,1,0.,12.0,0.,12.0,0.,12.0,0.,12.0
1979-07-31 15:14:50.050 ,3,0,0.,12.0,0.,12.0,0.,12.0,0.,12.0
1979-07-31 15:15:02.050 ,3,0,0.,12.0,0.,12.0,0.,12.0,0.,12.0
1979-07-31 15:15:14.050 ,4,1,0.,12.0,0.,12.0,0.,12.0,0.,12.0
1979-07-31 15:15:26.050 ,4,1,0.,12.0,0.,12.0,0.,12.0,0.,12.0
1979-07-31 15:15:38.050 ,4,0,0.,12.0,0.,12.0,0.,12.0,0.,12.0
1979-07-31 15:15:50.050 ,4,0,0.,12.0,0.,12.0,0.,12.0,0.,12.0
1979-07-31 15:16:02.050 ,5,1,0.,12.0,0.,12.0,0.,12.0,0.,12.0
1979-07-31 15:16:14.050 ,5,1,0.,12.0,0.,12.0,0.,12.0,0.,12.0
1979-07-31 15:16:26.050 ,5,0,0.,12.0,0.,12.0,0.,12.0,0.,12.0
1979-07-31 15:16:38.050 ,5,0,0.,12.0,0.,12.0,0.,12.0,0.,12.0
1979-07-31 15:16:50.050 ,6,1,0.,12.0,0.,12.0,0.,12.0,0.,12.0
1979-07-31 15:17:02.050 ,6,1,0.,12.0,0.,12.0,0.,12.0,0.,12.0
1979-07-31 15:17:14.050 ,6,0,0.,12.0,0.,12.0,0.,12.0,0.,12.0
1979-07-31 15:17:26.050 ,6,0,0.,12.0,0.,12.0,0.,12.0,0.,12.0
1979-07-31 15:17:38.050 ,7,1,0.,12.0,0.,12.0,0.,12.0,0.,12.0
1979-07-31 15:17:50.050 ,7,1,0.,12.0,0.,12.0,0.,12.0,0.,12.0
1979-07-31 15:18:02.050 ,7,0,0.,12.0,0.,12.0,0.,12.0,0.,12.0
1979-07-31 15:18:14.050 ,7,0,0.,12.0,0.,12.0,0.,12.0,0.,12.0
1979-07-31 15:18:26.050 ,7,1,0.,12.0,0.,12.0,0.,12.0,0.,12.0
1979-07-31 15:18:38.050 ,7,1,0.,12.0,0.,12.0,0.,12.0,0.,12.0
1979-07-31 15:18:50.050 ,7,0,0.,12.0,0.,12.0,0.,12.0,0.,12.0
1979-07-31 15:19:02.050 ,7,0,0.,12.0,0.,12.0,0.,12.0,0.,12.0
1979-07-31 15:19:14.050 ,6,1,0.,12.0,0.,12.0,0.,12.0,0.,12.0
1979-07-31 15:19:26.050 ,6,1,0.,12.0,0.,12.0,0.,12.0,0.,12.0
1979-07-31 15:19:38.050 ,6,0,0.,12.0,0.,12.0,0.,12.0,0.,12.0
1979-07-31 15:19:50.050 ,6,0,0.,12.0,0.,12.0,0.,12.0,0.,12.0
1979-07-31 15:20:02.050 ,5,1,0.,12.0,0.,12.0,0.,12.0,0.,12.0
1979-07-31 15:20:14.050 ,5,1,0.,12.0,0.,12.0,0.,12.0,0.,12.0
1979-07-31 15:20:26.050 ,5,0,0.,12.0,0.,12.0,0.,12.0,0.,12.0
1979-07-31 15:20:38.050 ,5,0,0.,12.0,0.,12.0,0.,12.0,0.,12.0
1979-07-31 15:20:50.050 ,4,1,0.,12.0,0.,12.0,0.,12.0,0.,12.0
1979-07-31 15:21:02.050 ,4,1,0.,12.0,0.,12.0,0.,12.0,0.,12.0
1979-07-31 15:21:14.050 ,4,0,0.,12.0,0.,12.0,0.,12.0,0.,12.0
1979-07-31 15:21:26.050 ,4,0,0.,12.0,0.,12.0,0.,12.0,0.,12.0
1979-07-31 15:21:38.050 ,3,1,0.,12.0,0.,12.0,0.,12.0,0.,12.0
1979-07-31 15:21:50.050 ,3,1,0.,12.0,0.,12.0,0.,12.0,0.,12.0
1979-07-31 15:22:02.050 ,3,0,0.,12.0,0.,12.0,0.,12.0,0.,12.0
1979-07-31 15:22:14.050 ,3,0,0.,12.0,0.,12.0,0.,12.0,0.,12.0
1979-07-31 15:22:26.050 ,2,1,0.,12.0,0.,12.0,0.,12.0,0.,12.0
1979-07-31 15:22:38.050 ,2,1,0.,12.0,0.,12.0,0.,12.0,0.,12.0
1979-07-31 15:22:50.050 ,2,0,0.,12.0,0.,12.0,0.,12.0,0.,12.0
1979-07-31 15:23:02.050 ,2,0,0.,12.0,0.,12.0,0.,12.0,0.,12.0
1979-07-31 15:23:14.050 ,1,1,0.,12.0,0.,12.0,0.,12.0,0.,12.0
1979-07-31 15:23:26.050 ,1,1,0.,12.0,0.,12.0,0.,12.0,0.,12.0
1979-07-31 15:23:38.050 ,1,0,0.,12.0,0.,12.0,0.,12.0,0.,12.0
1979-07-31 15:23:50.050 ,1,0,0.,12.0,0.,12.0,0.,12.0,0.,12.0
1979-07-31 15:24:02.050 ,0,1,0.,12.0,0.,12.0,0.,12.0,0.,12.0
1979-07-31 15:24:14.050 ,0,1,0.,12.0,0.,12.0,0.,12.0,0.,12.0
1979-07-31 15:24:26.050 ,0,0,0.,12.0,0.,12.0,0.,12.0,0.,12.0
1979-07-31 15:24:38.050 ,0,0,0.,12.0,0.,12.0,0.,12.0,0.,12.0
1979-07-31 15:24:50.050 ,0,1,0.,12.0,0.,12.0,0.,12.0,0.,12.0
1979-07-31 15:25:02.050 ,0,1,0.,12.0,0.,12.0,0.,12.0,0.,12.0
1979-07-31 15:25:14.050 ,0,0,0.,12.0,0.,12.0,0.,12.0,0.,12.0
1979-07-31 15:25:26.050 ,0,0,0.,12.0,0.,12.0,0.,12.0,0.,12.0
1979-07-31 15:25:38.050 ,1,1,0.,12.0,0.,12.0,0.,12.0,0.,12.0
1979-07-31 15:25:50.050 ,1,1,0.,12.0,0.,12.0,0.,12.0,0.,12.0
1979-07-31 15:26:02.050 ,1,0,0.,12.0,0.,12.0,0.,12.0,0.,12.0
1979-07-31 15:26:14.050 ,1,0,0.,12.0,0.,12.0,0.,12.0,0.,12.0
1979-07-31 15:26:26.050 ,2,1,0.,12.0,0.,12.0,0.,12.0,0.,12.0
1979-07-31 15:26:38.050 ,2,1,0.,12.0,0.,12.0,0.,12.0,0.,12.0
1979-07-31 15:26:50.050 ,2,0,0.,12.0,0.,12.0,0.,12.0,0.,12.0
1979-07-31 15:27:02.050 ,2,0,0.,12.0,0.,12.0,0.,12.0,0.,12.0
1979-07-31 15:27:14.050 ,3,1,0.,12.0,0.,12.0,0.,12.0,0.,12.0
1979-07-31 15:27:26.050 ,3,1,0.,12.0,0.,12.0,0.,12.0,0.,12.0
1979-07-31 15:27:38.050 ,3,0,0.,12.0,0.,12.0,0.,12.0,0.,12.0
1979-07-31 15:27:50.050 ,3,0,0.,12.0,0.,12.0,0.,12.0,0.,12.0
1979-07-31 15:28:02.050 ,4,1,0.,12.0,0.,12.0,0.,12.0,0.,12.0
1979-07-31 15:28:14.050 ,4,1,0.,12.0,0.,12.0,0.,12.0,0.,12.0
1979-07-31 15:28:26.050 ,4,0,0.,12.0,0.,12.0,0.,12.0,0.,12.0
1979-07-31 15:28:38.050 ,4,0,0.,12.0,0.,12.0,0.,12.0,0.,12.0
1979-07-31 15:28:50.050 ,5,1,0.,12.0,0.,12.0,0.,12.0,0.,12.0
1979-07-31 15:29:02.050 ,5,1,0.,12.0,0.,12.0,0.,12.0,0.,12.0
1979-07-31 15:29:14.050 ,5,0,0.,12.0,0.,12.0,0.,12.0,0.,12.0
1979-07-31 15:29:26.050 ,5,0,0.,12.0,0.,12.0,0.,12.0,0.,12.0
1979-07-31 15:29:38.050 ,6,1,0.,12.0,0.,12.0,0.,12.0,0.,12.0
1979-07-31 15:29:50.050 ,6,1,0.,12.0,0.,12.0,0.,12.0,0.,12.0
1979-07-31 15:30:02.050 ,6,0,0.,12.0,0.,12.0,0.,12.0,0.,12.0
1979-07-31 15:30:14.050 ,6,0,0.,12.0,0.,12.0,0.,12.0,0.,12.0
1979-07-31 15:30:26.050 ,7,0,0.,12.0,0.,12.0,0.,12.0,0.,12.0
1979-07-31 15:30:38.050 ,7,0,0.,12.0,0.,12.0,0.,12.0,0.,12.0
1979-07-31 15:30:50.050 ,7,0,0.,12.0,0.,12.0,0.,12.0,0.,12.0
1979-07-31 15:31:02.050 ,7,0,0.,12.0,0.,12.0,0.,12.0,0.,12.0
1979-07-31 15:31:14.050 ,4,1,0.,12.0,0.,12.0,0.,12.0,0.,12.0
1979-07-31 15:31:26.050 ,4,1,0.,12.0,0.,12.0,0.,12.0,0.,12.0
1979-07-31 15:31:38.050 ,0,1,0.,12.0,0.,12.0,0.,12.0,0.,12.0
1979-07-31 15:31:50.050 ,0,1,0.,12.0,0.,12.0,0.,12.0,0.,12.0
1979-07-31 15:32:02.050 ,3,1,0.,12.0,0.,12.0,0.,12.0,0.,12.0
1979-07-31 15:32:14.050 ,3,1,0.,12.0,0.,12.0,0.,12.0,0.,12.0
1979-07-31 15:32:26.050 ,7,1,0.,12.0,0.,12.0,0.,12.0,0.,12.0
1979-07-31 15:32:38.050 ,7,1,0.,12.0,0.,12.0,0.,12.0,0.,12.0
1979-07-31 15:32:50.050 ,4,1,0.,12.0,0.,12.0,0.,12.0,0.,12.0
1979-07-31 15:33:02.050 ,4,1,0.,12.0,0.,12.0,0.,12.0,0.,12.0
1979-07-31 15:33:14.050 ,0,1,0.,12.0,0.,12.0,0.,12.0,0.,12.0
1979-07-31 15:33:26.050 ,0,1,0.,12.0,0.,12.0,0.,12.0,0.,12.0
1979-07-31 15:33:38.050 ,3,1,0.,12.0,0.,12.0,0.,12.0,0.,12.0
1979-07-31 15:33:50.050 ,3,1,0.,12.0,0.,12.0,0.,12.0,0.,12.0
1979-07-31 15:34:02.050 ,7,1,0.,12.0,0.,12.0,0.,12.0,0.,12.0
1979-07-31 15:34:14.050 ,7,1,0.,12.0,0.,12.0,0.,12.0,0.,12.0
1979-07-31 15:34:26.050 ,4,1,0.,12.0,0.,12.0,0.,12.0,0.,12.0
1979-07-31 15:34:38.050 ,4,1,0.,12.0,0.,12.0,0.,12.0,0.,12.0
1979-07-31 15:34:50.050 ,0,1,0.,12.0,0.,12.0,0.,12.0,0.,12.0
1979-07-31 15:35:02.050 ,0,1,0.,12.0,0.,12.0,0.,12.0,0.,12.0
1979-07-31 15:35:14.050 ,3,1,0.,12.0,0.,12.0,0.,12.0,0.,12.0
1979-07-31 15:35:26.050 ,3,1,0.,12.0,0.,12.0,0.,12.0,0.,12.0
1979-07-31 15:35:38.050 ,7,1,0.,12.0,0.,12.0,0.,12.0,0.,12.0
1979-07-31 15:35:50.050 ,7,1,0.,12.0,0.,12.0,0.,12.0,0.,12.0
1979-07-31 15:36:02.050 ,4,1,0.,12.0,0.,12.0,0.,12.0,0.,12.0
1979-07-31 15:36:14.050 ,4,1,0.,12.0,0.,12.0,0.,12.0,0.,12.0
1979-07-31 15:36:26.050 ,0,1,0.,12.0,0.,12.0,0.,12.0,0.,12.0
1979-07-31 15:36:38.050 ,0,1,0.,12.0,0.,12.0,0.,12.0,0.,12.0
1979-07-31 15:36:50.050 ,3,1,0.,12.0,0.,12.0,0.,12.0,0.,12.0
1979-07-31 15:37:02.050 ,3,1,0.,12.0,0.,12.0,0.,12.0,0.,12.0
1979-07-31 15:37:14.050 ,7,1,0.,12.0,0.,12.0,0.,12.0,0.,12.0
1979-07-31 15:37:26.050 ,7,1,0.,12.0,0.,12.0,0.,12.0,0.,12.0
1979-07-31 15:37:38.050 ,4,1,0.,12.0,0.,12.0,0.,12.0,0.,12.0
1979-07-31 15:37:50.050 ,4,1,0.,12.0,0.,12.0,0.,12.0,0.,12.0
1979-07-31 15:38:02.050 ,0,1,0.,12.0,0.,12.0,0.,12.0,0.,12.0
1979-07-31 15:38:14.050 ,0,1,0.,12.0,0.,12.0,0.,12.0,0.,12.0
1979-07-31 15:38:26.050 ,3,1,0.,12.0,0.,12.0,0.,12.0,0.,12.0
1979-07-31 15:38:38.050 ,3,1,0.,12.0,0.,12.0,0.,12.0,0.,12.0
1979-07-31 15:38:50.050 ,7,1,0.,12.0,0.,12.0,0.,12.0,0.,12.0
1979-07-31 15:39:02.050 ,7,1,0.,12.0,0.,12.0,0.,12.0,0.,12.0
1979-07-31 15:39:14.050 ,4,1,0.,12.0,0.,12.0,0.,12.0,0.,12.0
1979-07-31 15:39:26.050 ,4,1,0.,12.0,0.,12.0,0.,12.0,0.,12.0
1979-07-31 15:39:38.050 ,0,1,0.,12.0,0.,12.0,0.,12.0,0.,12.0
1979-07-31 15:39:50.050 ,0,1,0.,12.0,0.,12.0,0.,12.0,0.,12.0
1979-07-31 15:40:02.050 ,3,1,0.,12.0,0.,12.0,0.,12.0,0.,12.0
1979-07-31 15:40:14.050 ,3,1,0.,12.0,0.,12.0,0.,12.0,0.,12.0
1979-07-31 15:40:26.050 ,7,1,0.,12.0,0.,12.0,0.,12.0,0.,12.0
1979-07-31 15:40:38.050 ,7,1,0.,12.0,0.,12.0,0.,12.0,0.,12.0
1979-07-31 15:40:50.050 ,4,1,0.,12.0,0.,12.0,0.,12.0,0.,12.0
1979-07-31 15:41:02.050 ,4,1,0.,12.0,0.,12.0,0.,12.0,0.,12.0
1979-07-31 15:41:14.050 ,0,1,0.,12.0,0.,12.0,0.,12.0,0.,12.0
1979-07-31 15:41:26.050 ,0,1,0.,12.0,0.,12.0,0.,12.0,0.,12.0
1979-07-31 15:41:38.050 ,0,0,0.,12.0,0.,12.0,0.,12.0,0.,12.0
1979-07-31 15:41:50.050 ,0,0,0.,12.0,0.,12.0,0.,12.0,0.,12.0
1979-07-31 15:42:02.050 ,0,0,0.,12.0,0.,12.0,0.,12.0,0.,12.0
1979-07-31 15:42:14.050 ,0,0,0.,12.0,0.,12.0,0.,12.0,0.,12.0
1979-07-31 15:42:26.050 ,5,1,0.,12.0,0.,12.0,0.,12.0,0.,12.0
1979-07-31 15:42:38.050 ,5,1,0.,12.0,0.,12.0,0.,12.0,0.,12.0
1979-07-31 15:42:50.050 ,5,0,0.,12.0,0.,12.0,0.,12.0,0.,12.0
1979-07-31 15:43:02.050 ,5,0,0.,12.0,0.,12.0,0.,12.0,0.,12.0
1979-07-31 15:43:14.050 ,4,1,0.,12.0,0.,12.0,0.,12.0,0.,12.0
1979-07-31 15:43:26.050 ,4,1,0.,12.0,0.,12.0,0.,12.0,0.,12.0
1979-07-31 15:43:38.050 ,4,0,0.,12.0,0.,12.0,0.,12.0,0.,12.0
1979-07-31 15:43:50.050 ,4,0,0.,12.0,0.,12.0,0.,12.0,0.,12.0
1979-07-31 15:44:02.050 ,3,1,0.,12.0,0.,12.0,0.,12.0,0.,12.0
1979-07-31 15:44:14.050 ,3,1,0.,12.0,0.,12.0,0.,12.0,0.,12.0
1979-07-31 15:44:26.050 ,3,0,0.,12.0,0.,12.0,0.,12.0,0.,12.0
1979-07-31 15:44:38.050 ,3,0,0.,12.0,0.,12.0,0.,12.0,0.,12.0
1979-07-31 15:44:50.050 ,2,1,0.,12.0,0.,12.0,0.,12.0,0.,12.0
1979-07-31 15:45:02.050 ,2,1,0.,12.0,0.,12.0,0.,12.0,0.,12.0
1979-07-31 15:45:14.050 ,2,0,0.,12.0,0.,12.0,0.,12.0,0.,12.0
1979-07-31 15:45:26.050 ,2,0,0.,12.0,0.,12.0,0.,12.0,0.,12.0
1979-07-31 15:45:38.050 ,1,1,0.,12.0,0.,12.0,0.,12.0,0.,12.0
1979-07-31 15:45:50.050 ,1,1,0.,12.0,0.,12.0,0.,12.0,0.,12.0
1979-07-31 15:46:02.050 ,1,0,0.,12.0,0.,12.0,0.,12.0,0.,12.0
1979-07-31 15:46:14.050 ,1,0,0.,12.0,0.,12.0,0.,12.0,0.,12.0
1979-07-31 15:46:26.050 ,0,1,0.,12.0,0.,12.0,0.,12.0,0.,12.0
1979-07-31 15:46:38.050 ,0,1,0.,12.0,0.,12.0,1.,12.0,0.,12.0
1979-07-31 15:46:50.050 ,0,0,0.,12.0,0.,12.0,0.,12.0,0.,12.0
1979-07-31 15:47:02.050 ,0,0,0.,12.0,0.,12.0,0.,12.0,0.,12.0
1979-07-31 15:47:14.050 ,0,1,0.,12.0,0.,12.0,0.,12.0,0.,12.0
1979-07-31 15:47:26.050 ,0,1,0.,12.0,0.,12.0,0.,12.0,0.,12.0
1979-07-31 15:47:38.050 ,0,0,0.,12.0,0.,12.0,0.,12.0,0.,12.0
1979-07-31 15:47:50.050 ,0,0,0.,12.0,0.,12.0,0.,12.0,0.,12.0
1979-07-31 15:48:02.050 ,1,1,0.,12.0,0.,12.0,0.,12.0,0.,12.0
1979-07-31 15:48:14.050 ,1,1,0.,12.0,0.,12.0,0.,12.0,0.,12.0
1979-07-31 15:48:26.050 ,1,0,0.,12.0,0.,12.0,0.,12.0,0.,12.0
1979-07-31 15:48:38.050 ,1,0,0.,12.0,0.,12.0,0.,12.0,0.,12.0
1979-07-31 15:48:50.050 ,2,1,0.,12.0,0.,12.0,0.,12.0,0.,12.0
1979-07-31 15:49:02.050 ,2,1,0.,12.0,0.,12.0,0.,12.0,0.,12.0
1979-07-31 15:49:14.050 ,2,0,0.,12.0,0.,12.0,0.,12.0,0.,12.0
1979-07-31 15:49:26.050 ,2,0,0.,12.0,0.,12.0,0.,12.0,0.,12.0
1979-07-31 15:49:38.050 ,3,1,0.,12.0,0.,12.0,0.,12.0,0.,12.0
1979-07-31 15:49:50.050 ,3,1,0.,12.0,0.,12.0,0.,12.0,0.,12.0
1979-07-31 15:50:02.050 ,3,0,0.,12.0,0.,12.0,0.,12.0,0.,12.0
1979-07-31 15:50:14.050 ,3,0,0.,12.0,0.,12.0,0.,12.0,0.,12.0
1979-07-31 15:50:26.050 ,4,1,0.,12.0,0.,12.0,0.,12.0,0.,12.0
1979-07-31 15:50:38.050 ,4,1,0.,12.0,0.,12.0,0.,12.0,0.,12.0
1979-07-31 15:50:50.050 ,4,0,0.,12.0,0.,12.0,0.,12.0,0.,12.0
1979-07-31 15:51:02.050 ,4,0,0.,12.0,0.,12.0,0.,12.0,0.,12.0
1979-07-31 15:51:14.050 ,5,1,0.,12.0,0.,12.0,0.,12.0,0.,12.0
1979-07-31 15:51:26.050 ,5,1,0.,12.0,0.,12.0,0.,12.0,0.,12.0
1979-07-31 15:51:38.050 ,5,0,0.,12.0,0.,12.0,0.,12.0,0.,12.0
1979-07-31 15:51:50.050 ,5,0,0.,12.0,0.,12.0,0.,12.0,0.,12.0
1979-07-31 15:52:02.050 ,6,1,0.,12.0,0.,12.0,0.,12.0,0.,12.0
1979-07-31 15:52:14.050 ,6,1,0.,12.0,0.,12.0,0.,12.0,0.,12.0
1979-07-31 15:52:26.050 ,6,0,0.,12.0,0.,12.0,0.,12.0,0.,12.0
1979-07-31 15:52:38.050 ,6,0,0.,12.0,0.,12.0,0.,12.0,0.,12.0
1979-07-31 15:52:50.050 ,7,1,0.,12.0,0.,12.0,0.,12.0,0.,12.0
1979-07-31 15:53:02.050 ,7,1,0.,12.0,0.,12.0,0.,12.0,0.,12.0
1979-07-31 15:53:14.050 ,7,0,0.,12.0,0.,12.0,0.,12.0,0.,12.0
1979-07-31 15:53:26.050 ,7,0,0.,12.0,0.,12.0,0.,12.0,0.,12.0
1979-07-31 15:53:38.050 ,7,1,0.,12.0,0.,12.0,0.,12.0,0.,12.0
1979-07-31 15:53:50.050 ,7,1,0.,12.0,0.,12.0,0.,12.0,0.,12.0
1979-07-31 15:54:02.050 ,7,0,0.,12.0,0.,12.0,0.,12.0,0.,12.0
1979-07-31 15:54:14.050 ,7,0,0.,12.0,0.,12.0,0.,12.0,0.,12.0
1979-07-31 15:54:26.050 ,6,1,0.,12.0,0.,12.0,0.,12.0,0.,12.0
1979-07-31 15:54:38.050 ,6,1,0.,12.0,0.,12.0,0.,12.0,0.,12.0
1979-07-31 15:54:50.050 ,6,0,0.,12.0,0.,12.0,0.,12.0,0.,12.0
1979-07-31 15:55:02.050 ,6,0,0.,12.0,0.,12.0,0.,12.0,0.,12.0
1979-07-31 15:55:14.050 ,5,1,0.,12.0,0.,12.0,0.,12.0,0.,12.0
1979-07-31 15:55:26.050 ,5,1,0.,12.0,0.,12.0,0.,12.0,0.,12.0
1979-07-31 15:55:38.050 ,5,0,0.,12.0,0.,12.0,0.,12.0,0.,12.0
1979-07-31 15:55:50.050 ,5,0,0.,12.0,0.,12.0,0.,12.0,0.,12.0
1979-07-31 15:56:02.050 ,4,1,0.,12.0,0.,12.0,0.,12.0,0.,12.0
1979-07-31 15:56:14.050 ,4,1,0.,12.0,0.,12.0,0.,12.0,0.,12.0
1979-07-31 15:56:26.050 ,4,0,0.,12.0,0.,12.0,0.,12.0,0.,12.0
1979-07-31 15:56:38.050 ,4,0,0.,12.0,0.,12.0,0.,12.0,0.,12.0
1979-07-31 15:56:50.050 ,3,1,0.,12.0,0.,12.0,0.,12.0,0.,12.0
1979-07-31 15:57:02.050 ,3,1,0.,12.0,0.,12.0,0.,12.0,0.,12.0
1979-07-31 15:57:14.050 ,3,0,0.,12.0,0.,12.0,0.,12.0,0.,12.0
1979-07-31 15:57:26.050 ,3,0,0.,12.0,0.,12.0,0.,12.0,0.,12.0
1979-07-31 15:57:38.050 ,2,1,0.,12.0,0.,12.0,0.,12.0,0.,12.0
1979-07-31 15:57:50.050 ,2,1,0.,12.0,0.,12.0,0.,12.0,0.,12.0
1979-07-31 15:58:02.050 ,2,0,0.,12.0,0.,12.0,0.,12.0,0.,12.0
1979-07-31 15:58:14.050 ,2,0,0.,12.0,0.,12.0,0.,12.0,0.,12.0
1979-07-31 15:58:26.050 ,1,1,0.,12.0,0.,12.0,0.,12.0,0.,12.0
1979-07-31 15:58:38.050 ,1,1,0.,12.0,0.,12.0,0.,12.0,0.,12.0
1979-07-31 15:58:50.050 ,1,0,0.,12.0,0.,12.0,0.,12.0,0.,12.0
1979-07-31 15:59:02.050 ,1,0,0.,12.0,0.,12.0,0.,12.0,0.,12.0
1979-07-31 15:59:14.050 ,0,1,0.,12.0,0.,12.0,0.,12.0,0.,12.0
1979-07-31 15:59:26.050 ,0,1,0.,12.0,0.,12.0,0.,12.0,0.,12.0
1979-07-31 15:59:38.050 ,0,0,0.,12.0,0.,12.0,0.,12.0,0.,12.0
1979-07-31 15:59:50.050 ,0,0,0.,12.0,0.,12.0,0.,12.0,0.,12.0
1979-07-31 16:00:02.050 ,0,1,0.,12.0,0.,12.0,0.,12.0,0.,12.0
1979-07-31 16:00:14.050 ,0,1,0.,12.0,0.,12.0,0.,12.0,0.,12.0
1979-07-31 16:00:26.050 ,0,0,0.,12.0,0.,12.0,0.,12.0,0.,12.0
1979-07-31 16:00:38.050 ,0,0,0.,12.0,0.,12.0,0.,12.0,0.,12.0
1979-07-31 16:00:50.050 ,1,1,0.,12.0,0.,12.0,0.,12.0,0.,12.0
1979-07-31 16:01:02.050 ,1,1,0.,12.0,0.,12.0,0.,12.0,0.,12.0
1979-07-31 16:01:14.050 ,1,0,0.,12.0,0.,12.0,0.,12.0,0.,12.0
1979-07-31 16:01:26.050 ,1,0,0.,12.0,0.,12.0,0.,12.0,0.,12.0
1979-07-31 16:01:38.050 ,2,1,0.,12.0,0.,12.0,0.,12.0,0.,12.0
1979-07-31 16:01:50.050 ,2,1,0.,12.0,0.,12.0,0.,12.0,0.,12.0
1979-07-31 16:02:02.050 ,2,0,0.,12.0,0.,12.0,0.,12.0,0.,12.0
1979-07-31 16:02:14.050 ,2,0,0.,12.0,0.,12.0,0.,12.0,0.,12.0
1979-07-31 16:02:26.050 ,3,1,0.,12.0,0.,12.0,0.,12.0,0.,12.0
1979-07-31 16:02:38.050 ,3,1,0.,12.0,0.,12.0,0.,12.0,0.,12.0
1979-07-31 16:02:50.050 ,3,0,0.,12.0,0.,12.0,0.,12.0,0.,12.0
1979-07-31 16:03:02.050 ,3,0,0.,12.0,0.,12.0,0.,12.0,0.,12.0
1979-07-31 16:03:14.050 ,0,0,0.,12.0,0.,12.0,0.,12.0,0.,12.0
1979-07-31 16:03:26.050 ,0,0,,0,,0,,0,,0
1979-07-31 16:03:38.050 ,0,0,,0,,0,,0,,0
1979-07-31 16:03:50.050 ,0,0,,0,,0,,0,,0
1979-07-31 16:11:20.650 ,0,0,,0,,0,,0,,0
1979-07-31 16:11:32.650 ,0,0,,0,,0,,0,,0
1979-07-31 16:11:38.050 ,0,0,0.,12.0,0.,12.0,0.,12.0,0.,12.0
1979-07-31 16:11:50.050 ,0,0,0.,12.0,0.,12.0,0.,12.0,0.,12.0
1979-07-31 16:12:02.050 ,0,1,0.,12.0,0.,12.0,0.,12.0,0.,12.0
1979-07-31 16:12:14.050 ,0,1,0.,12.0,0.,12.0,0.,12.0,0.,12.0
1979-07-31 16:12:26.050 ,0,0,0.,12.0,0.,12.0,0.,12.0,0.,12.0
1979-07-31 16:12:38.050 ,0,0,0.,12.0,0.,12.0,0.,12.0,0.,12.0
1979-07-31 16:12:50.050 ,0,1,0.,12.0,0.,12.0,0.,12.0,0.,12.0
1979-07-31 16:13:02.050 ,0,1,0.,12.0,0.,12.0,0.,12.0,0.,12.0
1979-07-31 16:13:14.050 ,0,0,0.,12.0,0.,12.0,0.,12.0,0.,12.0
1979-07-31 16:13:26.050 ,0,0,0.,12.0,0.,12.0,0.,12.0,0.,12.0
1979-07-31 16:13:38.050 ,1,1,0.,12.0,0.,12.0,0.,12.0,0.,12.0
1979-07-31 16:13:50.050 ,1,1,0.,12.0,0.,12.0,0.,12.0,0.,12.0
1979-07-31 16:14:02.050 ,1,0,0.,12.0,0.,12.0,0.,12.0,0.,12.0
1979-07-31 16:14:14.050 ,1,0,0.,12.0,0.,12.0,0.,12.0,0.,12.0
1979-07-31 16:14:26.050 ,2,1,0.,12.0,0.,12.0,0.,12.0,0.,12.0
1979-07-31 16:14:38.050 ,2,1,0.,12.0,0.,12.0,0.,12.0,0.,12.0
1979-07-31 16:14:50.050 ,2,0,0.,12.0,0.,12.0,0.,12.0,0.,12.0
1979-07-31 16:15:02.050 ,2,0,0.,12.0,0.,12.0,0.,12.0,0.,12.0
1979-07-31 16:15:14.050 ,3,1,0.,12.0,0.,12.0,0.,12.0,0.,12.0
1979-07-31 16:15:26.050 ,3,1,0.,12.0,0.,12.0,0.,12.0,0.,12.0
1979-07-31 16:15:38.050 ,3,1,,0,,0,,0,,0
1979-07-31 16:15:50.050 ,3,1,,0,,0,,0,,0
1979-07-31 16:18:39.250 ,7,0,,0,,0,,0,,0
1979-07-31 16:18:51.250 ,7,0,0.,12.0,0.,12.0,0.,12.0,0.,12.0
1979-07-31 16:18:50.050 ,7,0,0.,12.0,0.,12.0,0.,12.0,0.,12.0
1979-07-31 16:19:02.050 ,7,0,0.,12.0,0.,12.0,0.,12.0,0.,12.0
1979-07-31 16:19:14.050 ,4,1,0.,12.0,0.,12.0,0.,12.0,0.,12.0
1979-07-31 16:19:26.050 ,4,1,0.,12.0,0.,12.0,0.,12.0,0.,12.0
1979-07-31 16:19:38.050 ,0,1,0.,12.0,0.,12.0,0.,12.0,0.,12.0
1979-07-31 16:19:50.050 ,0,1,0.,12.0,0.,12.0,0.,12.0,0.,12.0
1979-07-31 16:20:02.050 ,3,1,0.,12.0,0.,12.0,0.,12.0,0.,12.0
1979-07-31 16:20:14.050 ,3,1,0.,12.0,0.,12.0,0.,12.0,0.,12.0
1979-07-31 16:20:26.050 ,7,1,0.,12.0,0.,12.0,0.,12.0,0.,12.0
1979-07-31 16:20:38.050 ,7,1,0.,12.0,0.,12.0,0.,12.0,0.,12.0
1979-07-31 16:20:50.050 ,4,1,0.,12.0,0.,12.0,0.,12.0,0.,12.0
1979-07-31 16:21:02.050 ,4,1,0.,12.0,0.,12.0,0.,12.0,0.,12.0
1979-07-31 16:21:14.050 ,0,1,0.,12.0,0.,12.0,0.,12.0,0.,12.0
1979-07-31 16:21:26.050 ,0,1,0.,12.0,0.,12.0,0.,12.0,0.,12.0
1979-07-31 16:21:38.050 ,3,1,0.,12.0,0.,12.0,0.,12.0,0.,12.0
1979-07-31 16:21:50.050 ,3,1,0.,12.0,0.,12.0,0.,12.0,0.,12.0
1979-07-31 16:22:02.050 ,7,1,0.,12.0,0.,12.0,0.,12.0,0.,12.0
1979-07-31 16:22:14.050 ,7,1,0.,12.0,0.,12.0,0.,12.0,0.,12.0
1979-07-31 16:22:26.050 ,4,1,0.,12.0,0.,12.0,0.,12.0,0.,12.0
1979-07-31 16:22:38.050 ,4,1,0.,12.0,0.,12.0,0.,12.0,0.,12.0
1979-07-31 16:22:50.050 ,0,1,0.,12.0,0.,12.0,0.,12.0,0.,12.0
1979-07-31 16:23:02.050 ,0,1,0.,12.0,0.,12.0,0.,12.0,0.,12.0
1979-07-31 16:23:14.050 ,3,1,0.,12.0,0.,12.0,0.,12.0,0.,12.0
1979-07-31 16:23:26.050 ,3,1,0.,12.0,0.,12.0,0.,12.0,0.,12.0
1979-07-31 16:23:38.050 ,7,1,0.,12.0,0.,12.0,0.,12.0,0.,12.0
1979-07-31 16:23:50.050 ,7,1,0.,12.0,0.,12.0,0.,12.0,0.,12.0
1979-07-31 16:24:02.050 ,4,1,0.,12.0,0.,12.0,0.,12.0,0.,12.0
1979-07-31 16:24:14.050 ,4,1,0.,12.0,0.,12.0,0.,12.0,0.,12.0
1979-07-31 16:24:26.050 ,0,1,0.,12.0,0.,12.0,0.,12.0,0.,12.0
1979-07-31 16:24:38.050 ,0,1,0.,12.0,0.,12.0,0.,12.0,0.,12.0
1979-07-31 16:24:50.050 ,3,1,0.,12.0,0.,12.0,0.,12.0,0.,12.0
1979-07-31 16:25:02.050 ,3,1,0.,12.0,0.,12.0,0.,12.0,0.,12.0
1979-07-31 16:25:14.050 ,7,1,0.,12.0,0.,12.0,0.,12.0,0.,12.0
1979-07-31 16:25:26.050 ,7,1,0.,12.0,0.,12.0,0.,12.0,0.,12.0
1979-07-31 16:25:38.050 ,4,1,0.,12.0,0.,12.0,0.,12.0,0.,12.0
1979-07-31 16:25:50.050 ,4,1,0.,12.0,0.,12.0,0.,12.0,0.,12.0
1979-07-31 16:26:02.050 ,0,1,0.,12.0,0.,12.0,0.,12.0,0.,12.0
1979-07-31 16:26:14.050 ,0,1,0.,12.0,0.,12.0,0.,12.0,0.,12.0
1979-07-31 16:26:26.050 ,3,1,0.,12.0,0.,12.0,0.,12.0,0.,12.0
1979-07-31 16:26:38.050 ,3,1,0.,12.0,0.,12.0,0.,12.0,0.,12.0
1979-07-31 16:26:50.050 ,7,1,0.,12.0,0.,12.0,0.,12.0,0.,12.0
1979-07-31 16:27:02.050 ,7,1,0.,12.0,0.,12.0,0.,12.0,0.,12.0
1979-07-31 16:27:14.050 ,4,1,0.,12.0,0.,12.0,0.,12.0,0.,12.0
1979-07-31 16:27:26.050 ,4,1,0.,12.0,0.,12.0,0.,12.0,0.,12.0
1979-07-31 16:27:38.050 ,0,1,0.,12.0,0.,12.0,0.,12.0,0.,12.0
1979-07-31 16:27:50.050 ,0,1,0.,12.0,0.,12.0,0.,12.0,0.,12.0
1979-07-31 16:28:02.050 ,3,1,0.,12.0,0.,12.0,0.,12.0,0.,12.0
1979-07-31 16:28:14.050 ,3,1,0.,12.0,0.,12.0,0.,12.0,0.,12.0